Theta_e
316 316 317 319 319 319 319 320 322 318 315 312 312 313 316 324 336 338 343 345 346 344 342 341 334 340 345 346 343 341 339 339 340 340 337 335 336 335 335 333 332 327 327
317 318 318 316 318 317 317 319 320 319 318 321 317 313 312 314 316 326 341 346 346 344 340 341 345 346 346 346 339 339 341 339 338 339 336 335 334 333 333 331 327 328 326
315 315 315 316 316 317 319 318 319 317 316 317 324 324 316 314 314 317 327 333 339 341 341 344 346 346 346 342 344 342 342 339 340 338 336 334 334 333 332 329 327 328 327
315 314 314 314 315 315 316 319 318 319 320 320 320 331 329 319 322 325 328 337 340 341 342 346 346 345 341 343 344 343 343 340 339 336 335 334 333 332 330 329 328 327 328
314 314 314 314 313 314 314 315 317 318 318 318 316 324 331 330 319 331 336 343 342 343 344 345 346 344 342 342 342 342 339 339 337 334 335 334 333 330 330 329 327 327 328
313 313 312 312 312 312 311 310 316 319 318 318 321 323 329 332 328 332 338 343 346 344 346 347 345 343 343 344 342 342 339 337 333 335 335 333 331 330 330 328 328 328 327
312 312 311 311 310 310 310 318 319 318 317 320 321 324 325 331 332 330 338 341 343 342 344 347 346 342 341 341 339 339 338 335 333 332 332 329 330 330 331 328 328 328 327
312 311 311 311 311 313 313 314 317 316 317 318 319 320 325 328 332 329 336 341 342 342 344 342 339 340 341 339 339 338 335 335 334 333 330 328 330 331 330 328 327 328 327
311 311 311 311 311 311 313 313 316 316 318 318 321 323 327 328 329 331 337 341 341 341 339 343 340 339 337 338 336 333 332 333 333 330 329 329 329 328 328 328 327 327 329
310 310 311 311 311 311 311 309 315 317 320 320 321 325 327 326 328 330 335 338 340 339 340 341 339 338 338 335 334 334 333 331 330 329 329 329 327 326 325 324 327 328 328
310 309 311 312 311 311 312 313 315 313 316 317 318 320 325 326 327 330 335 338 338 337 338 339 338 334 335 334 334 333 332 330 330 330 329 327 326 327 327 327 328 328 327
309 310 310 311 310 311 312 312 312 311 315 319 318 316 322 326 328 333 334 336 337 337 336 337 336 336 335 333 330 329 330 330 329 327 327 327 327 327 326 327 327 327 327
309 311 311 311 313 312 312 313 315 313 316 319 317 319 320 325 330 335 336 334 335 338 337 334 333 331 329 328 327 327 328 328 327 326 326 326 327 326 325 325 326 326 326
308 309 310 311 312 313 313 314 316 314 316 317 318 319 322 326 331 337 334 335 335 337 335 332 330 328 327 326 326 326 326 327 327 327 327 327 327 327 326 325 325 326 326
308 308 311 312 312 313 314 314 315 315 316 315 317 322 328 332 333 335 335 335 336 334 332 330 330 327 327 327 325 325 326 326 326 326 328 328 327 327 326 325 325 325 325
308 309 310 311 312 313 314 315 315 315 314 314 317 326 333 332 333 333 333 335 333 331 330 329 328 326 325 324 325 325 326 326 327 326 326 326 326 326 326 326 324 325 326
308 309 311 312 314 315 315 315 314 313 315 321 325 331 332 332 333 333 333 332 329 328 329 329 326 326 325 325 326 326 326 327 326 326 326 326 325 323 324 324 324 326 325
309 311 312 314 315 316 316 317 317 320 324 327 330 330 332 332 331 331 328 327 328 328 328 327 326 326 326 326 327 326 326 326 325 326 326 324 323 324 323 324 325 324 325
312 314 316 318 318 320 322 323 324 325 329 329 332 331 330 330 329 327 327 326 328 328 326 327 327 326 326 326 326 325 325 324 324 325 325 326 325 325 325 325 325 325 324
319 322 322 323 323 325 325 327 327 328 331 330 329 329 328 328 330 330 329 327 327 327 327 327 327 327 327 327 326 325 323 323 322 322 323 323 325 324 325 325 324 324 323
323 323 326 323 326 326 327 325 327 329 330 329 328 328 328 329 328 328 327 326 327 328 326 327 327 327 327 327 325 324 323 322 322 323 323 322 322 323 324 323 323 325 325
320 320 324 322 324 328 328 327 327 328 329 328 328 327 327 327 326 326 326 327 327 327 327 327 327 327 327 326 325 323 322 322 322 322 322 323 323 324 323 324 324 324 324
330 328 329 329 329 329 328 328 327 327 327 326 326 326 325 326 326 326 327 327 326 326 326 326 327 326 325 324 323 323 323 324 324 324 324 324 324 324 324 325 325 325 323
329 329 329 328 328 328 327 326 325 325 324 324 325 324 326 326 326 326 326 326 326 326 326 326 326 325 324 323 324 325 325 325 325 325 325 324 324 324 324 324 323 322 321
328 328 328 328 327 326 325 324 323 323 324 325 325 324 324 324 324 325 325 325 325 325 325 325 324 324 325 324 325 324 324 324 325 325 324 323 322 322 321 321 320 319 316
327 327 327 326 326 325 324 323 322 322 322 323 323 323 323 323 322 323 324 324 324 324 324 323 323 323 323 324 323 322 323 323 324 324 322 321 320 320 318 315 308 305 304
Wind_Speed
16 15 17 17 16 17 21 21 23 23 23 26 28 29 31 31 29 33 37 38 39 37 36 37 39 37 30 26 24 31 28 26 24 18 16 14 18 18 20 20 20 20 14
7 10 17 19 22 27 25 24 24 26 27 25 27 32 32 30 29 33 34 36 39 37 37 36 34 28 28 23 22 26 24 19 19 19 16 18 16 13 15 16 15 13 10
22 23 22 21 18 19 28 26 29 32 31 29 28 30 33 32 30 33 34 36 39 39 39 38 31 29 28 24 22 22 19 18 21 20 18 19 15 13 14 13 11 10 11
16 22 28 32 31 27 25 29 30 31 31 33 32 32 31 33 32 33 33 34 38 35 35 34 31 29 28 23 21 22 22 21 22 20 19 18 14 12 13 12 11 9 9
23 25 26 26 32 35 36 36 37 36 36 38 37 36 33 33 35 34 34 30 32 33 32 32 29 26 23 21 21 23 22 22 22 20 19 17 16 16 14 11 12 7 6
31 32 33 34 36 42 46 46 42 38 38 36 35 35 36 34 32 32 34 33 35 31 30 30 27 22 22 22 21 21 20 22 22 24 20 20 19 16 13 10 10 10 12
26 32 36 37 38 37 37 27 40 39 39 35 36 37 38 35 33 33 31 37 37 29 26 27 26 22 22 22 22 23 21 21 21 19 18 17 17 16 15 11 14 11 12
34 36 35 37 35 32 36 39 29 31 38 37 37 37 35 36 32 32 31 32 33 29 26 25 24 22 21 23 23 19 19 20 19 17 16 14 13 13 14 10 11 13 13
40 41 41 42 42 41 35 36 32 29 35 33 34 34 35 33 33 31 30 30 33 29 25 26 22 20 21 16 16 16 16 18 19 17 15 13 11 10 12 13 13 17 16
40 38 37 40 39 36 38 42 38 25 27 33 34 29 30 34 32 32 28 30 31 28 23 22 21 21 18 16 18 17 16 13 10 10 10 11 11 10 11 11 12 16 17
42 42 37 40 41 42 38 33 38 41 36 33 37 38 29 31 31 30 29 29 31 27 24 24 20 17 15 17 17 17 15 11 10 10 9 10 10 9 10 11 13 13 15
35 33 36 38 40 38 32 34 35 40 34 33 39 38 36 30 32 30 29 31 30 29 30 26 22 20 21 18 17 14 13 11 8 7 9 8 7 8 8 10 12 12 12
32 34 33 31 35 34 34 34 31 33 32 34 37 36 37 31 32 30 29 30 32 32 26 19 15 17 19 17 13 11 11 10 10 11 9 7 6 6 7 9 11 12 8
33 33 35 34 32 28 31 31 29 31 36 36 35 37 32 33 31 29 32 34 32 27 23 20 16 16 17 15 12 12 12 13 11 9 9 11 10 7 7 7 7 9 7
34 32 31 31 30 31 29 31 34 36 35 37 34 32 29 34 33 37 41 36 36 31 28 25 21 19 18 15 14 12 13 12 10 10 14 12 10 9 9 7 8 6 9
30 30 30 33 32 31 29 31 34 38 36 35 33 28 33 35 37 37 37 38 34 30 27 23 21 19 17 17 15 16 14 11 8 6 9 11 11 7 11 8 7 6 7
31 30 27 25 27 28 29 31 35 35 34 33 31 26 35 34 36 39 36 32 25 24 22 21 21 18 18 19 18 15 14 12 10 9 10 9 9 6 9 9 8 6 6
26 27 24 24 26 28 31 30 30 26 23 20 24 25 31 44 40 36 30 26 25 21 19 20 20 19 20 18 15 14 13 12 11 9 9 7 6 9 9 10 8 7 8
21 20 21 22 23 24 22 25 23 24 24 30 42 41 43 38 31 26 25 25 26 23 20 18 20 19 21 18 13 14 13 11 10 12 10 11 9 10 10 9 9 8 6
13 16 18 17 20 22 24 27 31 32 46 42 45 45 40 37 36 31 24 24 25 23 21 21 21 20 20 18 14 13 10 9 9 9 10 9 9 8 8 8 5 3 3
10 14 12 18 19 22 36 33 36 52 47 44 43 40 38 38 34 28 24 23 21 22 21 21 23 20 18 17 13 11 10 9 10 8 9 9 9 10 6 5 4 3 1
18 27 17 32 23 40 41 39 44 46 47 46 42 38 34 34 30 27 25 23 21 22 21 22 20 20 18 14 12 12 11 11 11 11 9 9 8 7 7 8 5 4 4
41 37 33 36 39 39 39 41 42 42 42 39 36 34 35 32 29 27 25 24 24 25 26 25 23 20 18 16 13 14 14 13 12 12 12 12 10 10 9 7 6 7 6
45 42 43 40 40 36 36 37 37 40 43 40 35 34 32 29 29 28 27 28 29 28 28 25 22 20 17 17 14 12 11 10 11 12 11 10 10 8 8 8 5 5 3
28 29 32 33 33 35 34 33 38 42 40 37 34 33 32 30 33 33 32 30 30 28 26 22 21 21 19 17 15 13 12 11 12 14 14 14 13 10 9 8 7 5 6
25 28 31 30 30 29 27 35 37 38 34 33 32 28 30 35 33 31 32 31 30 26 24 22 21 20 19 16 13 13 13 14 14 13 14 14 13 13 13 13 13 12 11
Wind_Direction
243 255 263 264 257 264 272 272 277 282 276 263 254 255 255 250 253 252 249 252 249 258 260 263 264 263 268 273 250 244 254 266 265 255 259 246 235 239 253 270 277 283 287
245 260 261 267 268 275 277 269 270 278 281 279 272 260 254 257 252 249 248 249 253 258 265 266 257 260 266 257 242 243 249 263 241 246 250 238 238 243 256 276 277 280 282
257 259 260 267 283 285 269 264 268 276 279 276 277 272 262 256 255 254 253 254 257 256 258 254 254 258 255 239 242 248 250 242 239 247 244 237 244 256 269 282 278 271 267
237 245 254 260 265 267 273 280 268 265 270 273 273 274 274 262 254 256 256 257 255 255 246 248 253 252 240 233 239 246 248 230 237 241 244 243 250 264 268 264 272 272 262
250 250 251 253 254 259 270 271 274 265 266 271 274 270 272 274 254 256 257 258 257 247 245 244 243 235 232 236 246 244 236 233 234 238 233 235 251 258 253 259 256 266 237
271 267 267 270 268 268 282 268 260 259 261 269 270 269 266 270 265 256 261 257 254 245 239 240 233 231 232 237 245 243 246 231 234 238 241 250 262 251 241 251 231 222 214
274 276 279 281 282 279 259 266 250 252 258 263 268 269 267 263 266 252 255 252 246 240 235 224 222 231 232 238 240 243 237 232 236 240 247 257 251 253 245 255 234 231 237
269 273 271 274 269 265 267 258 256 254 254 259 268 271 267 263 264 255 254 249 240 234 227 223 223 228 239 240 238 244 237 231 232 242 248 250 246 248 247 253 249 218 229
271 272 271 269 266 263 260 260 252 252 262 260 267 269 264 266 263 249 251 245 233 226 220 216 220 223 230 220 221 229 229 233 237 240 243 244 246 249 245 225 214 211 218
273 275 265 258 261 256 253 260 249 246 262 260 260 263 266 261 260 245 249 237 224 217 209 206 215 224 222 228 228 228 230 233 234 246 239 242 236 234 225 228 223 220 218
270 273 259 253 256 254 250 251 233 253 257 264 268 262 263 259 255 242 242 228 214 204 203 206 204 222 224 223 221 231 237 231 232 241 239 224 218 221 223 209 204 206 210
263 255 255 256 254 253 253 247 249 249 249 259 266 266 265 259 247 240 228 217 205 201 205 202 204 207 218 222 223 219 213 216 219 201 188 188 219 212 200 204 212 209 207
250 250 255 251 241 249 249 243 248 242 247 255 263 258 261 256 247 234 221 206 205 205 196 200 200 208 211 207 190 187 183 190 178 173 184 183 172 171 183 189 195 200 217
249 245 248 250 250 246 242 241 242 236 247 253 255 256 254 254 240 222 198 196 196 184 180 178 183 188 185 179 170 159 159 158 165 180 182 181 170 188 181 179 178 198 220
247 245 242 244 244 249 243 237 233 237 242 251 254 253 247 232 222 196 188 187 178 176 173 174 180 180 174 166 156 157 159 166 180 182 178 186 194 190 178 176 170 177 210
241 244 241 242 244 238 236 233 234 241 250 252 252 252 231 226 187 191 192 174 171 171 177 178 173 170 166 156 153 148 150 160 171 166 174 191 196 190 188 179 178 200 236
234 236 242 236 229 229 230 233 237 243 245 240 238 233 220 187 185 171 165 162 164 170 178 170 168 166 157 150 147 150 152 152 154 157 165 164 174 183 190 189 203 207 202
230 232 235 233 229 229 223 227 234 238 245 195 178 194 186 167 160 159 159 161 159 169 170 165 166 157 149 147 150 158 156 160 168 174 164 174 176 175 168 178 188 207 226
214 228 232 226 230 225 219 215 219 206 205 184 166 164 159 157 158 160 163 164 160 155 152 161 160 153 153 161 169 166 165 172 183 180 186 194 179 176 182 198 211 225 233
234 232 230 224 218 206 193 183 175 183 154 146 148 151 152 153 152 155 158 160 156 153 160 165 160 155 162 171 171 168 169 157 163 180 189 186 181 189 194 197 204 213 212
185 154 160 174 159 158 165 152 158 149 149 149 145 146 151 151 150 154 156 158 155 155 159 161 163 162 165 171 171 159 158 161 169 167 175 175 178 186 171 161 182 167 206
157 157 161 153 151 125 130 140 148 147 145 144 144 147 150 148 148 146 148 151 154 159 162 163 156 155 157 164 167 151 160 165 176 178 178 182 171 175 167 171 165 164 120
115 130 126 132 133 133 142 145 142 139 140 137 137 142 148 147 147 147 148 148 147 148 148 152 151 157 162 158 160 161 163 165 163 165 171 172 177 174 173 177 179 149 134
125 124 129 130 136 137 136 137 140 140 137 139 142 145 147 145 148 142 144 144 147 150 156 157 156 154 151 151 152 160 159 154 165 166 162 157 156 152 147 147 151 148 138
127 127 126 133 134 136 136 137 141 144 144 144 143 147 148 149 147 147 146 151 150 149 150 154 152 148 149 147 150 145 145 145 135 143 140 141 143 148 153 153 148 144 132
141 134 136 136 136 137 141 144 146 147 146 148 149 147 148 149 150 151 153 148 149 148 149 150 147 144 145 144 140 128 123 133 143 154 153 146 146 141 137 130 126 123 120